Year,Month,Day,Hour,Minute,Value (Times are PST for windspeed in km/hr)
2016,03,13,00,00,11.90
2016,03,13,00,01,12.20
2016,03,13,00,02,12.70
2016,03,13,00,03,13.00
2016,03,13,00,04,13.80
2016,03,13,00,05,13.60
2016,03,13,00,06,12.20
2016,03,13,00,07,10.80
2016,03,13,00,08,10.50
2016,03,13,00,09,10.90
2016,03,13,00,10,11.70
2016,03,13,00,11,11.10
2016,03,13,00,12,10.70
2016,03,13,00,13,10.10
2016,03,13,00,14,8.50
2016,03,13,00,15,7.40
2016,03,13,00,16,6.10
2016,03,13,00,17,5.20
2016,03,13,00,18,3.90
2016,03,13,00,19,3.40
2016,03,13,00,20,3.30
2016,03,13,00,21,4.10
2016,03,13,00,22,6.20
2016,03,13,00,23,7.90
2016,03,13,00,24,8.40
2016,03,13,00,25,9.10
2016,03,13,00,26,9.00
2016,03,13,00,27,9.20
2016,03,13,00,28,8.40
2016,03,13,00,29,8.20
2016,03,13,00,30,7.50
2016,03,13,00,31,6.80
2016,03,13,00,32,5.80
2016,03,13,00,33,5.90
2016,03,13,00,34,6.40
2016,03,13,00,35,6.80
2016,03,13,00,36,7.50
2016,03,13,00,37,7.40
2016,03,13,00,38,7.40
2016,03,13,00,39,8.40
2016,03,13,00,40,8.40
2016,03,13,00,41,6.00
2016,03,13,00,42,4.40
2016,03,13,00,43,2.80
2016,03,13,00,44,2.20
2016,03,13,00,45,4.20
2016,03,13,00,46,4.90
2016,03,13,00,47,7.30
2016,03,13,00,48,9.40
2016,03,13,00,49,11.60
2016,03,13,00,50,15.00
2016,03,13,00,51,16.80
2016,03,13,00,52,15.60
2016,03,13,00,53,14.60
2016,03,13,00,54,17.70
2016,03,13,00,55,29.30
2016,03,13,00,56,34.60
2016,03,13,00,57,31.80
2016,03,13,00,58,32.50
2016,03,13,00,59,33.50
2016,03,13,01,00,31.80
2016,03,13,01,01,32.40
2016,03,13,01,02,34.70
2016,03,13,01,03,33.00
2016,03,13,01,04,31.60
2016,03,13,01,05,27.60
2016,03,13,01,06,28.80
2016,03,13,01,07,30.20
2016,03,13,01,08,29.60
2016,03,13,01,09,31.80
2016,03,13,01,10,30.10
2016,03,13,01,11,30.50
2016,03,13,01,12,31.30
2016,03,13,01,13,29.70
2016,03,13,01,14,30.60
2016,03,13,01,15,29.70
2016,03,13,01,16,30.60
2016,03,13,01,17,27.60
2016,03,13,01,18,28.70
2016,03,13,01,19,32.30
2016,03,13,01,20,30.70
2016,03,13,01,21,30.80
2016,03,13,01,22,30.60
2016,03,13,01,23,28.90
2016,03,13,01,24,29.90
2016,03,13,01,25,28.70
2016,03,13,01,26,27.70
2016,03,13,01,27,26.60
2016,03,13,01,28,25.40
2016,03,13,01,29,23.40
2016,03,13,01,30,22.80
2016,03,13,01,31,23.10
2016,03,13,01,32,24.80
2016,03,13,01,33,24.50
2016,03,13,01,34,25.40
2016,03,13,01,35,23.90
2016,03,13,01,36,22.60
2016,03,13,01,37,24.10
2016,03,13,01,38,22.50
2016,03,13,01,39,23.80
2016,03,13,01,40,22.20
2016,03,13,01,41,21.40
2016,03,13,01,42,21.60
2016,03,13,01,43,22.90
2016,03,13,01,44,21.40
2016,03,13,01,45,19.80
2016,03,13,01,46,19.00
2016,03,13,01,47,19.40
2016,03,13,01,48,18.90
2016,03,13,01,49,18.80
2016,03,13,01,50,20.90
2016,03,13,01,51,24.60
2016,03,13,01,52,23.80
2016,03,13,01,53,24.80
2016,03,13,01,54,24.90
2016,03,13,01,55,23.60
2016,03,13,01,56,21.10
2016,03,13,01,57,20.30
2016,03,13,01,58,18.80
2016,03,13,01,59,21.10
2016,03,13,03,00,19.10
2016,03,13,03,01,19.20
2016,03,13,03,02,17.10
2016,03,13,03,03,15.40
2016,03,13,03,04,16.20
2016,03,13,03,05,14.60
2016,03,13,03,06,17.20
2016,03,13,03,07,17.30
2016,03,13,03,08,17.30
2016,03,13,03,09,17.20
2016,03,13,03,10,17.60
2016,03,13,03,11,17.30
2016,03,13,03,12,16.40
2016,03,13,03,13,17.90
2016,03,13,03,14,16.30
2016,03,13,03,15,16.50
2016,03,13,03,16,19.20
2016,03,13,03,17,18.70
2016,03,13,03,18,19.90
2016,03,13,03,19,21.50
2016,03,13,03,20,21.80
2016,03,13,03,21,22.00
2016,03,13,03,22,21.30
2016,03,13,03,23,23.30
2016,03,13,03,24,22.70
2016,03,13,03,25,21.60
2016,03,13,03,26,24.80
2016,03,13,03,27,26.10
2016,03,13,03,28,25.70
2016,03,13,03,29,24.70
2016,03,13,03,30,25.90
2016,03,13,03,31,26.60
2016,03,13,03,32,27.30
2016,03,13,03,33,25.80
2016,03,13,03,34,25.60
2016,03,13,03,35,27.40
2016,03,13,03,36,25.40
2016,03,13,03,37,24.80
2016,03,13,03,38,25.90
2016,03,13,03,39,25.30
2016,03,13,03,40,34.00
2016,03,13,03,41,35.60
2016,03,13,03,42,36.90
2016,03,13,03,43,34.50
2016,03,13,03,44,33.30
2016,03,13,03,45,36.00
2016,03,13,03,46,44.10
2016,03,13,03,47,47.60
2016,03,13,03,48,48.30
2016,03,13,03,49,48.30
2016,03,13,03,50,48.30
2016,03,13,03,51,48.30
2016,03,13,03,52,47.80
2016,03,13,03,53,48.70
2016,03,13,03,54,52.00
2016,03,13,03,55,50.00
2016,03,13,03,56,49.90
2016,03,13,03,57,47.80
2016,03,13,03,58,47.40
2016,03,13,03,59,50.10
2016,03,13,04,00,54.50
2016,03,13,04,01,50.50
2016,03,13,04,02,49.10
2016,03,13,04,03,54.70
2016,03,13,04,04,55.50
2016,03,13,04,05,54.30
2016,03,13,04,06,53.80
2016,03,13,04,07,48.70
2016,03,13,04,08,51.30
2016,03,13,04,09,51.60
2016,03,13,04,10,57.40
2016,03,13,04,11,46.80
2016,03,13,04,12,53.80
2016,03,13,04,13,60.40
2016,03,13,04,14,60.30
2016,03,13,04,15,53.60
2016,03,13,04,16,60.50
2016,03,13,04,17,67.10
2016,03,13,04,18,65.90
2016,03,13,04,19,65.20
2016,03,13,04,20,66.10
2016,03,13,04,21,67.70
2016,03,13,04,22,67.00
2016,03,13,04,23,57.60
2016,03,13,04,24,68.70
2016,03,13,04,25,65.30
2016,03,13,04,26,64.50
2016,03,13,04,27,64.70
2016,03,13,04,28,59.30
2016,03,13,04,29,62.70
2016,03,13,04,30,64.30
2016,03,13,04,31,68.40
2016,03,13,04,32,63.50
2016,03,13,04,33,64.10
2016,03,13,04,34,65.30
2016,03,13,04,35,60.50
2016,03,13,04,36,67.70
2016,03,13,04,37,66.80
2016,03,13,04,38,67.70
2016,03,13,04,39,62.50
2016,03,13,04,40,62.60
2016,03,13,04,41,61.50
2016,03,13,04,42,65.50
2016,03,13,04,43,67.90
2016,03,13,04,44,63.40
2016,03,13,04,45,70.40
2016,03,13,04,46,66.00
2016,03,13,04,47,68.10
2016,03,13,04,48,72.60
2016,03,13,04,49,66.60
2016,03,13,04,50,66.90
2016,03,13,04,51,66.40
2016,03,13,04,52,72.70
2016,03,13,04,53,67.90
2016,03,13,04,54,67.40
2016,03,13,04,55,68.80
2016,03,13,04,56,68.70
2016,03,13,04,57,67.40
2016,03,13,04,58,68.10
2016,03,13,04,59,69.60
2016,03,13,05,00,61.70
2016,03,13,05,01,70.20
2016,03,13,05,02,77.10
2016,03,13,05,03,64.50
2016,03,13,05,04,72.10
2016,03,13,05,05,76.70
2016,03,13,05,06,64.50
2016,03,13,05,07,69.50
2016,03,13,05,08,74.80
2016,03,13,05,09,70.30
2016,03,13,05,10,69.40
2016,03,13,05,11,74.90
2016,03,13,05,12,64.10
2016,03,13,05,13,75.10
2016,03,13,05,14,73.00
2016,03,13,05,15,70.20
2016,03,13,05,16,67.40
2016,03,13,05,17,61.50
2016,03,13,05,18,62.20
2016,03,13,05,19,69.50
2016,03,13,05,20,65.50
2016,03,13,05,21,62.10
2016,03,13,05,22,67.40
2016,03,13,05,23,71.90
2016,03,13,05,24,66.70
2016,03,13,05,25,64.50
2016,03,13,05,26,62.10
2016,03,13,05,27,68.80
2016,03,13,05,28,66.10
2016,03,13,05,29,64.00
2016,03,13,05,30,64.50
2016,03,13,05,31,71.60
2016,03,13,05,32,70.90
2016,03,13,05,33,71.40
2016,03,13,05,34,69.20
2016,03,13,05,35,68.40
2016,03,13,05,36,72.80
2016,03,13,05,37,75.50
2016,03,13,05,38,78.20
2016,03,13,05,39,68.70
2016,03,13,05,40,63.20
2016,03,13,05,41,69.00
2016,03,13,05,42,77.20
2016,03,13,05,43,65.10
2016,03,13,05,44,70.90
2016,03,13,05,45,76.90
2016,03,13,05,46,72.30
2016,03,13,05,47,67.60
2016,03,13,05,48,70.90
2016,03,13,05,49,69.70
2016,03,13,05,50,70.90
2016,03,13,05,51,71.50
2016,03,13,05,52,71.20
2016,03,13,05,53,56.00
2016,03,13,05,54,63.80
2016,03,13,05,55,72.20
2016,03,13,05,56,73.50
2016,03,13,05,57,68.70
2016,03,13,05,58,69.50
2016,03,13,05,59,69.30
2016,03,13,06,00,58.60
2016,03,13,06,01,68.80
2016,03,13,06,02,66.50
2016,03,13,06,03,81.20
2016,03,13,06,04,79.10
2016,03,13,06,05,70.20
2016,03,13,06,06,71.00
2016,03,13,06,07,68.50
2016,03,13,06,08,78.10
2016,03,13,06,09,71.10
2016,03,13,06,10,67.80
2016,03,13,06,11,68.20
2016,03,13,06,12,62.40
2016,03,13,06,13,76.80
2016,03,13,06,14,81.80
2016,03,13,06,15,74.60
2016,03,13,06,16,71.90
2016,03,13,06,17,78.20
2016,03,13,06,18,72.10
2016,03,13,06,19,68.90
2016,03,13,06,20,63.50
2016,03,13,06,21,68.60
2016,03,13,06,22,66.80
2016,03,13,06,23,62.70
2016,03,13,06,24,75.40
2016,03,13,06,25,69.50
2016,03,13,06,26,77.80
2016,03,13,06,27,73.60
2016,03,13,06,28,69.70
2016,03,13,06,29,77.20
2016,03,13,06,30,64.80
2016,03,13,06,31,66.60
2016,03,13,06,32,65.20
2016,03,13,06,33,70.60
2016,03,13,06,34,61.70
2016,03,13,06,35,66.70
2016,03,13,06,36,72.60
2016,03,13,06,37,74.80
2016,03,13,06,38,64.10
2016,03,13,06,39,70.60
2016,03,13,06,40,63.60
2016,03,13,06,41,72.10
2016,03,13,06,42,69.10
2016,03,13,06,43,72.50
2016,03,13,06,44,73.50
2016,03,13,06,45,70.90
2016,03,13,06,46,64.50
2016,03,13,06,47,82.40
2016,03,13,06,48,75.90
2016,03,13,06,49,78.10
2016,03,13,06,50,71.00
2016,03,13,06,51,72.00
2016,03,13,06,52,74.40
2016,03,13,06,53,72.90
2016,03,13,06,54,62.10
2016,03,13,06,55,69.30
2016,03,13,06,56,63.40
2016,03,13,06,57,73.10
2016,03,13,06,58,70.00
2016,03,13,06,59,79.00
2016,03,13,07,00,79.80
2016,03,13,07,01,82.90
2016,03,13,07,02,80.90
2016,03,13,07,03,74.00
2016,03,13,07,04,77.00
2016,03,13,07,05,79.70
2016,03,13,07,06,80.30
2016,03,13,07,07,79.40
2016,03,13,07,08,72.30
2016,03,13,07,09,71.20
2016,03,13,07,10,80.00
2016,03,13,07,11,75.70
2016,03,13,07,12,80.60
2016,03,13,07,13,83.50
2016,03,13,07,14,74.00
2016,03,13,07,15,84.10
2016,03,13,07,16,78.80
2016,03,13,07,17,69.00
2016,03,13,07,18,77.90
2016,03,13,07,19,75.40
2016,03,13,07,20,76.70
2016,03,13,07,21,78.60
2016,03,13,07,22,78.50
2016,03,13,07,23,82.50
2016,03,13,07,24,76.60
2016,03,13,07,25,79.90
2016,03,13,07,26,82.10
2016,03,13,07,27,82.10
2016,03,13,07,28,82.10
2016,03,13,07,29,78.40
2016,03,13,07,30,74.80
2016,03,13,07,31,64.80
2016,03,13,07,32,65.00
2016,03,13,07,33,73.50
2016,03,13,07,34,67.40
2016,03,13,07,35,68.60
2016,03,13,07,36,73.80
2016,03,13,07,37,70.90
2016,03,13,07,38,73.20
2016,03,13,07,39,73.10
2016,03,13,07,40,69.80
2016,03,13,07,41,67.60
2016,03,13,07,42,70.10
2016,03,13,07,43,69.80
2016,03,13,07,44,65.50
2016,03,13,07,45,73.00
2016,03,13,07,46,70.70
2016,03,13,07,47,71.00
2016,03,13,07,48,63.00
2016,03,13,07,49,74.50
2016,03,13,07,50,78.20
2016,03,13,07,51,77.70
2016,03,13,07,52,74.80
2016,03,13,07,53,78.70
2016,03,13,07,54,72.30
2016,03,13,07,55,78.60
2016,03,13,07,56,75.10
2016,03,13,07,57,72.30
2016,03,13,07,58,72.70
2016,03,13,07,59,78.30
2016,03,13,08,00,75.00
2016,03,13,08,01,70.80
2016,03,13,08,02,71.20
2016,03,13,08,03,69.40
2016,03,13,08,04,67.20
2016,03,13,08,05,67.70
2016,03,13,08,06,71.40
2016,03,13,08,07,71.20
2016,03,13,08,08,74.50
2016,03,13,08,09,73.80
2016,03,13,08,10,75.60
2016,03,13,08,11,75.60
2016,03,13,08,12,75.60
2016,03,13,08,13,75.60
2016,03,13,08,14,75.60
2016,03,13,08,15,72.70
2016,03,13,08,16,72.80
2016,03,13,08,17,65.80
2016,03,13,08,18,65.90
2016,03,13,08,19,71.00
2016,03,13,08,20,71.90
2016,03,13,08,21,64.10
2016,03,13,08,22,62.70
2016,03,13,08,23,68.20
2016,03,13,08,24,71.20
2016,03,13,08,25,62.80
2016,03,13,08,26,62.90
2016,03,13,08,27,61.20
2016,03,13,08,28,66.30
2016,03,13,08,29,60.70
2016,03,13,08,30,57.70
2016,03,13,08,31,57.90
2016,03,13,08,32,61.00
2016,03,13,08,33,64.50
2016,03,13,08,34,69.40
2016,03,13,08,35,64.00
2016,03,13,08,36,60.50
2016,03,13,08,37,53.80
2016,03,13,08,38,55.10
2016,03,13,08,39,63.20
2016,03,13,08,40,62.60
2016,03,13,08,41,60.60
2016,03,13,08,42,62.80
2016,03,13,08,43,65.80
2016,03,13,08,44,69.10
2016,03,13,08,45,65.50
2016,03,13,08,46,69.50
2016,03,13,08,47,60.60
2016,03,13,08,48,62.60
2016,03,13,08,49,65.10
2016,03,13,08,50,62.80
2016,03,13,08,51,61.90
2016,03,13,08,52,61.30
2016,03,13,08,53,68.30
2016,03,13,08,54,62.20
2016,03,13,08,55,58.60
2016,03,13,08,56,60.20
2016,03,13,08,57,69.40
2016,03,13,08,58,62.90
2016,03,13,08,59,68.90
2016,03,13,09,00,73.80
2016,03,13,09,01,70.40
2016,03,13,09,02,64.10
2016,03,13,09,03,67.50
2016,03,13,09,04,71.10
2016,03,13,09,05,67.90
2016,03,13,09,06,72.30
2016,03,13,09,07,74.90
2016,03,13,09,08,77.40
2016,03,13,09,09,70.40
2016,03,13,09,10,69.60
2016,03,13,09,11,64.40
2016,03,13,09,12,69.90
2016,03,13,09,13,71.80
2016,03,13,09,14,69.30
2016,03,13,09,15,70.20
2016,03,13,09,16,72.70
2016,03,13,09,17,76.70
2016,03,13,09,18,73.90
2016,03,13,09,19,66.10
2016,03,13,09,20,69.10
2016,03,13,09,21,66.20
2016,03,13,09,22,69.50
2016,03,13,09,23,66.70
2016,03,13,09,24,65.60
2016,03,13,09,25,66.10
2016,03,13,09,26,62.30
2016,03,13,09,27,69.40
2016,03,13,09,28,74.00
2016,03,13,09,29,83.80
2016,03,13,09,30,86.00
2016,03,13,09,31,84.40
2016,03,13,09,32,82.80
2016,03,13,09,33,88.20
2016,03,13,09,34,79.10
2016,03,13,09,35,85.30
2016,03,13,09,36,85.30
2016,03,13,09,37,87.10
2016,03,13,09,38,90.00
2016,03,13,09,39,95.30
2016,03,13,09,40,87.50
2016,03,13,09,41,92.10
2016,03,13,09,42,87.10
2016,03,13,09,43,83.70
2016,03,13,09,44,83.70
2016,03,13,09,45,83.70
2016,03,13,09,46,84.30
2016,03,13,09,47,83.50
2016,03,13,09,48,80.00
2016,03,13,09,49,77.50
2016,03,13,09,50,75.60
2016,03,13,09,51,78.80
2016,03,13,09,52,82.10
2016,03,13,09,53,70.70
2016,03,13,09,54,70.20
2016,03,13,09,55,70.30
2016,03,13,09,56,67.70
2016,03,13,09,57,78.40
2016,03,13,09,58,78.80
2016,03,13,09,59,77.40
2016,03,13,10,00,79.30
2016,03,13,10,01,75.20
2016,03,13,10,02,75.90
2016,03,13,10,03,75.30
2016,03,13,10,04,71.20
2016,03,13,10,05,73.00
2016,03,13,10,06,72.70
2016,03,13,10,07,75.30
2016,03,13,10,08,72.70
2016,03,13,10,09,70.60
2016,03,13,10,10,71.40
2016,03,13,10,11,65.30
2016,03,13,10,12,68.60
2016,03,13,10,13,72.60
2016,03,13,10,14,71.10
2016,03,13,10,15,68.60
2016,03,13,10,16,65.00
2016,03,13,10,17,62.10
2016,03,13,10,18,71.00
2016,03,13,10,19,70.80
2016,03,13,10,20,71.00
2016,03,13,10,21,63.20
2016,03,13,10,22,68.90
2016,03,13,10,23,68.10
2016,03,13,10,24,66.90
2016,03,13,10,25,67.70
2016,03,13,10,26,66.50
2016,03,13,10,27,63.80
2016,03,13,10,28,66.50
2016,03,13,10,29,62.40
2016,03,13,10,30,68.70
2016,03,13,10,31,70.40
2016,03,13,10,32,70.40
2016,03,13,10,33,64.90
2016,03,13,10,34,65.50
2016,03,13,10,35,68.10
2016,03,13,10,36,66.50
2016,03,13,10,37,69.40
2016,03,13,10,38,70.00
2016,03,13,10,39,67.50
2016,03,13,10,40,66.00
2016,03,13,10,41,65.30
2016,03,13,10,42,65.90
2016,03,13,10,43,67.70
2016,03,13,10,44,69.10
2016,03,13,10,45,69.40
2016,03,13,10,46,65.90
2016,03,13,10,47,66.30
2016,03,13,10,48,63.90
2016,03,13,10,49,66.10
2016,03,13,10,50,65.60
2016,03,13,10,51,70.10
2016,03,13,10,52,70.20
2016,03,13,10,53,66.50
2016,03,13,10,54,65.90
2016,03,13,10,55,64.60
2016,03,13,10,56,70.50
2016,03,13,10,57,70.60
2016,03,13,10,58,71.40
2016,03,13,10,59,66.90
2016,03,13,11,00,65.60
2016,03,13,11,01,64.10
2016,03,13,11,02,66.90
2016,03,13,11,03,67.30
2016,03,13,11,04,64.10
2016,03,13,11,05,60.70
2016,03,13,11,06,65.70
2016,03,13,11,07,60.70
2016,03,13,11,08,61.20
2016,03,13,11,09,57.80
2016,03,13,11,10,66.40
2016,03,13,11,11,62.30
2016,03,13,11,12,57.90
2016,03,13,11,13,64.20
2016,03,13,11,14,68.90
2016,03,13,11,15,63.90
2016,03,13,11,16,66.20
2016,03,13,11,17,62.30
2016,03,13,11,18,66.00
2016,03,13,11,19,68.70
2016,03,13,11,20,65.60
2016,03,13,11,21,68.50
2016,03,13,11,22,75.30
2016,03,13,11,23,70.70
2016,03,13,11,24,67.00
2016,03,13,11,25,66.70
2016,03,13,11,26,74.60
2016,03,13,11,27,73.90
2016,03,13,11,28,73.50
2016,03,13,11,29,72.00
2016,03,13,11,30,69.70
2016,03,13,11,31,63.50
2016,03,13,11,32,75.80
2016,03,13,11,33,77.60
2016,03,13,11,34,74.80
2016,03,13,11,35,67.60
2016,03,13,11,36,78.30
2016,03,13,11,37,74.80
2016,03,13,11,38,71.50
2016,03,13,11,39,71.30
2016,03,13,11,40,75.10
2016,03,13,11,41,76.60
2016,03,13,11,42,72.20
2016,03,13,11,43,70.10
2016,03,13,11,44,71.00
2016,03,13,11,45,71.30
2016,03,13,11,46,72.10
2016,03,13,11,47,73.30
2016,03,13,11,48,70.50
2016,03,13,11,49,65.50
2016,03,13,11,50,73.90
2016,03,13,11,51,74.10
2016,03,13,11,52,71.70
2016,03,13,11,53,68.00
2016,03,13,11,54,72.00
2016,03,13,11,55,71.90
2016,03,13,11,56,68.70
2016,03,13,11,57,68.80
2016,03,13,11,58,73.70
2016,03,13,11,59,66.60
2016,03,13,12,00,69.00
2016,03,13,12,01,68.80
2016,03,13,12,02,59.90
2016,03,13,12,03,58.00
2016,03,13,12,04,62.70
2016,03,13,12,05,70.80
2016,03,13,12,06,74.90
2016,03,13,12,07,69.90
2016,03,13,12,08,68.40
2016,03,13,12,09,75.00
2016,03,13,12,10,72.30
2016,03,13,12,11,74.50
2016,03,13,12,12,71.30
2016,03,13,12,13,71.50
2016,03,13,12,14,78.80
2016,03,13,12,15,77.90
2016,03,13,12,16,81.30
2016,03,13,12,17,76.90
2016,03,13,12,18,74.60
2016,03,13,12,19,68.70
2016,03,13,12,20,64.90
2016,03,13,12,21,80.30
2016,03,13,12,22,74.50
2016,03,13,12,23,75.90
2016,03,13,12,24,78.80
2016,03,13,12,25,81.80
2016,03,13,12,26,83.00
2016,03,13,12,27,75.80
2016,03,13,12,28,75.90
2016,03,13,12,29,71.70
2016,03,13,12,30,79.60
2016,03,13,12,31,72.70
2016,03,13,12,32,70.40
2016,03,13,12,33,80.40
2016,03,13,12,34,85.90
2016,03,13,12,35,79.50
2016,03,13,12,36,79.80
2016,03,13,12,37,71.30
2016,03,13,12,38,73.60
2016,03,13,12,39,81.90
2016,03,13,12,40,84.80
2016,03,13,12,41,83.40
2016,03,13,12,42,85.70
2016,03,13,12,43,81.90
2016,03,13,12,44,77.60
2016,03,13,12,45,80.70
2016,03,13,12,46,79.70
2016,03,13,12,47,82.10
2016,03,13,12,48,82.10
2016,03,13,12,49,79.50
2016,03,13,12,50,79.60
2016,03,13,12,51,81.40
2016,03,13,12,52,78.80
2016,03,13,12,53,83.40
2016,03,13,12,54,83.80
2016,03,13,12,55,86.70
2016,03,13,12,56,89.60
2016,03,13,12,57,84.00
2016,03,13,12,58,88.40
2016,03,13,12,59,92.90
2016,03,13,13,00,90.90
2016,03,13,13,01,80.10
2016,03,13,13,02,87.70
2016,03,13,13,03,87.30
2016,03,13,13,04,82.80
2016,03,13,13,05,87.40
2016,03,13,13,06,87.40
2016,03,13,13,07,92.20
2016,03,13,13,08,82.80
2016,03,13,13,09,84.80
2016,03,13,13,10,77.90
2016,03,13,13,11,83.70
2016,03,13,13,12,83.50
2016,03,13,13,13,85.80
2016,03,13,13,14,84.10
2016,03,13,13,15,86.60
2016,03,13,13,16,88.40
2016,03,13,13,17,91.70
2016,03,13,13,18,93.30
2016,03,13,13,19,79.80
2016,03,13,13,20,81.70
2016,03,13,13,21,85.70
2016,03,13,13,22,81.60
2016,03,13,13,23,88.20
2016,03,13,13,24,85.10
2016,03,13,13,25,76.70
2016,03,13,13,26,81.80
2016,03,13,13,27,84.80
2016,03,13,13,28,78.80
2016,03,13,13,29,81.00
2016,03,13,13,30,82.50
2016,03,13,13,31,81.20
2016,03,13,13,32,86.90
2016,03,13,13,33,89.20
2016,03,13,13,34,89.30
2016,03,13,13,35,86.70
2016,03,13,13,36,89.70
2016,03,13,13,37,84.10
2016,03,13,13,38,90.40
2016,03,13,13,39,86.40
2016,03,13,13,40,89.30
2016,03,13,13,41,81.20
2016,03,13,13,42,81.90
2016,03,13,13,43,89.50
2016,03,13,13,44,91.20
2016,03,13,13,45,84.10
2016,03,13,13,46,87.30
2016,03,13,13,47,85.90
2016,03,13,13,48,83.50
2016,03,13,13,49,88.30
2016,03,13,13,50,86.60
2016,03,13,13,51,86.10
2016,03,13,13,52,88.10
2016,03,13,13,53,90.00
2016,03,13,13,54,84.50
2016,03,13,13,55,79.30
2016,03,13,13,56,82.10
2016,03,13,13,57,88.00
2016,03,13,13,58,84.50
2016,03,13,13,59,82.20
2016,03,13,14,00,83.50
2016,03,13,14,01,79.80
2016,03,13,14,02,80.80
2016,03,13,14,03,84.20
2016,03,13,14,04,87.30
2016,03,13,14,05,77.90
2016,03,13,14,06,88.50
2016,03,13,14,07,88.30
2016,03,13,14,08,84.40
2016,03,13,14,09,89.20
2016,03,13,14,10,90.20
2016,03,13,14,11,84.30
2016,03,13,14,12,83.90
2016,03,13,14,13,88.10
2016,03,13,14,14,80.90
2016,03,13,14,15,77.20
2016,03,13,14,16,74.00
2016,03,13,14,17,75.10
2016,03,13,14,18,79.90
2016,03,13,14,19,80.40
2016,03,13,14,20,76.20
2016,03,13,14,21,91.50
2016,03,13,14,22,96.60
2016,03,13,14,23,96.60
2016,03,13,14,24,96.00
2016,03,13,14,25,81.90
2016,03,13,14,26,82.80
2016,03,13,14,27,74.60
2016,03,13,14,28,81.60
2016,03,13,14,29,76.90
2016,03,13,14,30,78.00
2016,03,13,14,31,81.30
2016,03,13,14,32,88.50
2016,03,13,14,33,86.10
2016,03,13,14,34,87.80
2016,03,13,14,35,79.80
2016,03,13,14,36,89.20
2016,03,13,14,37,88.10
2016,03,13,14,38,84.10
2016,03,13,14,39,86.80
2016,03,13,14,40,80.90
2016,03,13,14,41,94.50
2016,03,13,14,42,96.60
2016,03,13,14,43,104.00
2016,03,13,14,44,100.00
2016,03,13,14,45,97.30
2016,03,13,14,46,100.50
2016,03,13,14,47,95.40
2016,03,13,14,48,89.80
2016,03,13,14,49,89.80
2016,03,13,14,50,93.40
2016,03,13,14,51,96.90
2016,03,13,14,52,96.40
2016,03,13,14,53,91.20
2016,03,13,14,54,89.60
2016,03,13,14,55,89.10
2016,03,13,14,56,89.40
2016,03,13,14,57,77.40
2016,03,13,14,58,81.70
2016,03,13,14,59,80.50
2016,03,13,15,00,85.30
2016,03,13,15,01,84.70
2016,03,13,15,02,80.40
2016,03,13,15,03,83.90
2016,03,13,15,04,85.40
2016,03,13,15,05,80.40
2016,03,13,15,06,78.10
2016,03,13,15,07,85.60
2016,03,13,15,08,80.90
2016,03,13,15,09,88.10
2016,03,13,15,10,86.00
2016,03,13,15,11,82.60
2016,03,13,15,12,83.80
2016,03,13,15,13,81.70
2016,03,13,15,14,78.10
2016,03,13,15,15,75.60
2016,03,13,15,16,77.30
2016,03,13,15,17,80.10
2016,03,13,15,18,73.90
2016,03,13,15,19,82.00
2016,03,13,15,20,75.80
2016,03,13,15,21,73.40
2016,03,13,15,22,72.00
2016,03,13,15,23,79.20
2016,03,13,15,24,68.70
2016,03,13,15,25,72.20
2016,03,13,15,26,71.10
2016,03,13,15,27,72.00
2016,03,13,15,28,74.90
2016,03,13,15,29,71.90
2016,03,13,15,30,63.50
2016,03,13,15,31,62.70
2016,03,13,15,32,69.00
2016,03,13,15,33,76.90
2016,03,13,15,34,67.40
2016,03,13,15,35,69.70
2016,03,13,15,36,73.70
2016,03,13,15,37,64.40
2016,03,13,15,38,63.40
2016,03,13,15,39,56.60
2016,03,13,15,40,56.70
2016,03,13,15,41,59.30
2016,03,13,15,42,61.50
2016,03,13,15,43,65.60
2016,03,13,15,44,59.20
2016,03,13,15,45,58.30
2016,03,13,15,46,60.20
2016,03,13,15,47,60.90
2016,03,13,15,48,59.10
2016,03,13,15,49,62.40
2016,03,13,15,50,63.30
2016,03,13,15,51,60.90
2016,03,13,15,52,58.10
2016,03,13,15,53,59.90
2016,03,13,15,54,58.10
2016,03,13,15,55,57.90
2016,03,13,15,56,59.10
2016,03,13,15,57,59.20
2016,03,13,15,58,58.20
2016,03,13,15,59,57.10
2016,03,13,16,00,55.60
2016,03,13,16,01,56.40
2016,03,13,16,02,55.50
2016,03,13,16,03,48.00
2016,03,13,16,04,50.40
2016,03,13,16,05,50.00
2016,03,13,16,06,51.20
2016,03,13,16,07,49.80
2016,03,13,16,08,54.40
2016,03,13,16,09,57.10
2016,03,13,16,10,56.20
2016,03,13,16,11,51.00
2016,03,13,16,12,60.10
2016,03,13,16,13,56.30
2016,03,13,16,14,54.90
2016,03,13,16,15,50.50
2016,03,13,16,16,52.70
2016,03,13,16,17,52.20
2016,03,13,16,18,43.10
2016,03,13,16,19,48.00
2016,03,13,16,20,47.60
2016,03,13,16,21,41.90
2016,03,13,16,22,36.80
2016,03,13,16,23,37.80
2016,03,13,16,24,39.30
2016,03,13,16,25,39.10
2016,03,13,16,26,39.70
2016,03,13,16,27,39.90
2016,03,13,16,28,41.30
2016,03,13,16,29,40.20
2016,03,13,16,30,44.80
2016,03,13,16,31,52.10
2016,03,13,16,32,57.60
2016,03,13,16,33,54.80
2016,03,13,16,34,54.80
2016,03,13,16,35,50.60
2016,03,13,16,36,54.60
2016,03,13,16,37,67.40
2016,03,13,16,38,69.10
2016,03,13,16,39,70.50
2016,03,13,16,40,68.60
2016,03,13,16,41,65.40
2016,03,13,16,42,76.00
2016,03,13,16,43,81.30
2016,03,13,16,44,74.90
2016,03,13,16,45,78.10
2016,03,13,16,46,80.00
2016,03,13,16,47,85.00
2016,03,13,16,48,81.70
2016,03,13,16,49,78.20
2016,03,13,16,50,80.20
2016,03,13,16,51,74.40
2016,03,13,16,52,74.90
2016,03,13,16,53,68.40
2016,03,13,16,54,67.60
2016,03,13,16,55,67.60
2016,03,13,16,56,70.10
2016,03,13,16,57,72.20
2016,03,13,16,58,68.80
2016,03,13,16,59,65.40
2016,03,13,17,00,65.00
2016,03,13,17,01,63.00
2016,03,13,17,02,76.90
2016,03,13,17,03,82.90
2016,03,13,17,04,85.10
2016,03,13,17,05,87.80
2016,03,13,17,06,84.80
2016,03,13,17,07,82.20
2016,03,13,17,08,84.20
2016,03,13,17,09,84.30
2016,03,13,17,10,77.80
2016,03,13,17,11,84.10
2016,03,13,17,12,83.30
2016,03,13,17,13,77.80
2016,03,13,17,14,84.30
2016,03,13,17,15,87.50
2016,03,13,17,16,89.10
2016,03,13,17,17,93.60
2016,03,13,17,18,84.00
2016,03,13,17,19,93.80
2016,03,13,17,20,92.50
2016,03,13,17,21,87.80
2016,03,13,17,22,87.80
2016,03,13,17,23,94.40
2016,03,13,17,24,81.30
2016,03,13,17,25,80.10
2016,03,13,17,26,84.20
2016,03,13,17,27,80.20
2016,03,13,17,28,88.50
2016,03,13,17,29,88.40
2016,03,13,17,30,87.40
2016,03,13,17,31,85.20
2016,03,13,17,32,94.50
2016,03,13,17,33,96.20
2016,03,13,17,34,83.80
2016,03,13,17,35,91.80
2016,03,13,17,36,98.10
2016,03,13,17,37,105.60
2016,03,13,17,38,105.90
2016,03,13,17,39,103.40
2016,03,13,17,40,95.00
2016,03,13,17,41,98.20
2016,03,13,17,42,96.70
2016,03,13,17,43,92.10
2016,03,13,17,44,97.60
2016,03,13,17,45,104.60
2016,03,13,17,46,94.80
2016,03,13,17,47,101.50
2016,03,13,17,48,96.10
2016,03,13,17,49,88.40
2016,03,13,17,50,101.50
2016,03,13,17,51,100.80
2016,03,13,17,52,98.30
2016,03,13,17,53,101.40
2016,03,13,17,54,100.70
2016,03,13,17,55,104.30
2016,03,13,17,56,107.00
2016,03,13,17,57,100.50
2016,03,13,17,58,95.60
2016,03,13,17,59,90.40
2016,03,13,18,00,91.90
2016,03,13,18,01,82.90
2016,03,13,18,02,80.20
2016,03,13,18,03,89.00
2016,03,13,18,04,87.20
2016,03,13,18,05,81.90
2016,03,13,18,06,81.10
2016,03,13,18,07,85.50
2016,03,13,18,08,95.60
2016,03,13,18,09,103.00
2016,03,13,18,10,102.30
2016,03,13,18,11,100.70
2016,03,13,18,12,100.50
2016,03,13,18,13,94.00
2016,03,13,18,14,94.90
2016,03,13,18,15,97.30
2016,03,13,18,16,91.70
2016,03,13,18,17,99.90
2016,03,13,18,18,99.20
2016,03,13,18,19,96.00
2016,03,13,18,20,86.30